Change the Weather History Date:

Wednesday, January 9, 2013

  Actual Average Record
Temperature  
Mean Temperature 27 °F -  
Max Temperature 33 °F 20 °F 51 °F (2012)
Min Temperature 21 °F 5 °F -22 °F (1999)
Degree Days  
Heating Degree Days 38    
Moisture  
Dew Point 24 °F    
Average Humidity 81    
Maximum Humidity 93    
Minimum Humidity 69    
Precipitation  
Precipitation 0.00 in - - ()
Sea Level Pressure  
Sea Level Pressure 30.19 in    
Wind  
Wind Speed 12 mph (SSW)    
Max Wind Speed 18 mph    
Max Gust Speed 24 mph    
Visibility 10 miles    
Events      
Averages and records for this station are not official NWS values.
T = Trace of Precipitation, MM = Missing Value Source: NWS Daily Summary

Daily Weather History Graph

Daily Weather History Graph

Search for Another Location

Airport or City:

Trip Planner

Search our weather history database for the weather conditions in past years. The results will help you decide how hot, cold, wet, or windy it might be!

Date:

Astronomy

Jan. 09, 2013 Rise Set
Actual Time 8:02 AM CST 5:07 PM CST
Civil Twilight 7:29 AM CST 5:40 PM CST
Nautical Twilight 6:53 AM CST 6:16 PM CST
Astronomical Twilight 6:18 AM CST 6:51 PM CST
Moon 5:42 AM CST (1/9) 3:10 PM CST (1/9)
Length of Visible Light 10h 10m
Length of Day
9h 05m
Waning Crescent, 6% of the Moon is Illuminated
Jan 9
Waning Crescent
Jan 11
New
Jan 18
First Quarter
Jan 26
Full
Feb 3
Last Quarter

Hourly Weather History & Observations

Time (CST) Temp. Windchill Dew Point Humidity Pressure Visibility Wind Dir Wind Speed Gust Speed Precip Events Conditions
12:15 AM 33.8 °F 24.8 °F 30.2 °F 87% 30.02 in 10.0 mi West 12.7 mph - N/A   Overcast
12:35 AM 33.8 °F 25.3 °F 30.2 °F 87% 30.02 in 10.0 mi West 11.5 mph - N/A   Overcast
12:55 AM 33.8 °F 24.8 °F 30.2 °F 87% 30.03 in 10.0 mi West 12.7 mph 17.3 mph N/A   Scattered Clouds
1:15 AM 33.8 °F 23.5 °F 28.4 °F 81% 30.04 in 10.0 mi West 16.1 mph - N/A   Clear
1:35 AM 33.8 °F 23.9 °F 28.4 °F 81% 30.04 in 10.0 mi WSW 15.0 mph - N/A   Clear
1:55 AM 32.0 °F 20.8 °F 28.4 °F 87% 30.05 in 10.0 mi West 17.3 mph 21.9 mph N/A   Clear
2:15 AM 32.0 °F 20.5 °F 28.4 °F 87% 30.06 in 10.0 mi WSW 18.4 mph 24.2 mph N/A   Clear
2:35 AM 32.0 °F 21.2 °F 28.4 °F 87% 30.07 in 10.0 mi West 16.1 mph 21.9 mph N/A   Clear
2:55 AM 30.2 °F 18.5 °F 28.4 °F 93% 30.08 in 10.0 mi West 17.3 mph 24.2 mph N/A   Clear
3:15 AM 30.2 °F 18.5 °F 26.6 °F 86% 30.10 in 10.0 mi West 17.3 mph 24.2 mph N/A   Clear
3:35 AM 30.2 °F 20.2 °F 26.6 °F 86% 30.11 in 10.0 mi West 12.7 mph - N/A   Clear
3:55 AM 30.2 °F 20.8 °F 26.6 °F 86% 30.12 in 10.0 mi West 11.5 mph - N/A   Clear
4:15 AM 30.2 °F 19.8 °F 24.8 °F 80% 30.13 in 10.0 mi West 13.8 mph 18.4 mph N/A   Clear
4:35 AM 30.2 °F 19.8 °F 24.8 °F 80% 30.13 in 10.0 mi West 13.8 mph - N/A   Clear
4:55 AM 30.2 °F 20.8 °F 24.8 °F 80% 30.14 in 10.0 mi West 11.5 mph - N/A   Clear
5:15 AM 28.4 °F 19.1 °F 24.8 °F 86% 30.15 in 10.0 mi West 10.4 mph - N/A   Clear
5:35 AM 28.4 °F 19.1 °F 24.8 °F 86% 30.15 in 10.0 mi West 10.4 mph - N/A   Clear
5:55 AM 26.6 °F 16.2 °F 21.2 °F 80% 30.15 in 10.0 mi West 11.5 mph - N/A   Clear
6:15 AM 26.6 °F 17.5 °F 21.2 °F 80% 30.15 in 10.0 mi West 9.2 mph - N/A   Clear
6:35 AM 24.8 °F 13.4 °F 19.4 °F 80% 30.15 in 10.0 mi West 12.7 mph - N/A   Clear
6:55 AM 24.8 °F 16.9 °F 19.4 °F 80% 30.17 in 10.0 mi West 6.9 mph - N/A   Clear
7:15 AM 24.8 °F 16.9 °F 21.2 °F 86% 30.18 in 10.0 mi West 6.9 mph - N/A   Clear
7:35 AM 24.8 °F 15.3 °F 15.8 °F 69% 30.18 in 10.0 mi WSW 9.2 mph - N/A   Clear
7:55 AM 21.2 °F 13.6 °F 17.6 °F 86% 30.18 in 10.0 mi WNW 5.8 mph - N/A   Clear
8:15 AM 21.2 °F - 19.4 °F 93% 30.19 in 10.0 mi Calm Calm - N/A   Clear
8:35 AM 21.2 °F - 17.6 °F 86% 30.21 in 10.0 mi Calm Calm - N/A   Clear
8:55 AM 24.8 °F 20.5 °F 21.2 °F 86% 30.22 in 10.0 mi WSW 3.5 mph - N/A   Clear
9:15 AM 24.8 °F - 21.2 °F 86% 30.22 in 10.0 mi Calm Calm - N/A   Clear
9:35 AM 24.8 °F 19.1 °F 19.4 °F 80% 30.23 in 10.0 mi West 4.6 mph - N/A   Clear
9:55 AM 23.0 °F - 19.4 °F 86% 30.23 in 10.0 mi Calm Calm - N/A   Clear
10:15 AM 28.4 °F 22.2 °F 19.4 °F 69% 30.26 in 10.0 mi SW 5.8 mph - N/A   Clear
10:35 AM 24.8 °F 14.6 °F 19.4 °F 80% 30.28 in 10.0 mi South 10.4 mph - N/A   Clear
10:55 AM 26.6 °F 16.8 °F 19.4 °F 74% 30.28 in 10.0 mi South 10.4 mph - N/A   Clear
11:15 AM 30.2 °F 21.9 °F 21.2 °F 69% 30.28 in 10.0 mi SSW 9.2 mph - N/A   Clear
11:35 AM 30.2 °F 21.3 °F 21.2 °F 69% 30.29 in 10.0 mi SSW 10.4 mph - N/A   Clear
11:55 AM 30.2 °F 20.8 °F 21.2 °F 69% 30.29 in 10.0 mi SSW 11.5 mph - N/A   Clear
12:15 PM 32.0 °F 23.6 °F 23.0 °F 69% 30.29 in 10.0 mi SSW 10.4 mph - N/A   Clear
12:35 PM 32.0 °F 23.0 °F 24.8 °F 75% 30.29 in 10.0 mi SSW 11.5 mph - N/A   Clear
12:55 PM 30.2 °F 21.9 °F 24.8 °F 80% 30.29 in 10.0 mi South 9.2 mph - N/A   Clear
1:15 PM 30.2 °F 21.3 °F 24.8 °F 80% 30.29 in 10.0 mi South 10.4 mph - N/A   Clear
1:35 PM 32.0 °F 24.8 °F 24.8 °F 75% 30.28 in 10.0 mi South 8.1 mph - N/A   Clear
1:55 PM 33.8 °F 27.0 °F 24.8 °F 70% 30.27 in 10.0 mi South 8.1 mph - N/A   Clear
2:15 PM 33.8 °F 27.7 °F 24.8 °F 70% 30.26 in 10.0 mi SSE 6.9 mph - N/A   Clear
2:35 PM 33.8 °F 27.0 °F 24.8 °F 70% 30.27 in 10.0 mi SSE 8.1 mph - N/A   Clear
2:55 PM 33.8 °F 26.4 °F 24.8 °F 70% 30.26 in 10.0 mi SE 9.2 mph - N/A   Clear
3:15 PM 33.8 °F 25.8 °F 24.8 °F 70% 30.26 in 10.0 mi SE 10.4 mph - N/A   Clear
3:35 PM 33.8 °F 25.3 °F 24.8 °F 70% 30.26 in 10.0 mi SE 11.5 mph - N/A   Clear
3:55 PM 32.0 °F 23.0 °F 24.8 °F 75% 30.25 in 10.0 mi ESE 11.5 mph - N/A   Clear
4:15 PM 32.0 °F 22.1 °F 24.8 °F 75% 30.24 in 10.0 mi SE 13.8 mph - N/A   Clear
4:35 PM 30.2 °F 20.2 °F 24.8 °F 80% 30.24 in 10.0 mi SE 12.7 mph - N/A   Clear
4:55 PM 30.2 °F 20.2 °F 24.8 °F 80% 30.23 in 10.0 mi SE 12.7 mph - N/A   Clear
5:15 PM 30.2 °F 21.3 °F 24.8 °F 80% 30.23 in 10.0 mi SE 10.4 mph - N/A   Clear
5:35 PM 30.2 °F 20.8 °F 24.8 °F 80% 30.23 in 10.0 mi SE 11.5 mph - N/A   Clear
5:55 PM 30.2 °F 21.3 °F 24.8 °F 80% 30.23 in 10.0 mi SE 10.4 mph - N/A   Clear
6:15 PM 28.4 °F 19.1 °F 24.8 °F 86% 30.23 in 10.0 mi SE 10.4 mph - N/A   Clear
6:35 PM 28.4 °F 18.0 °F 24.8 °F 86% 30.23 in 10.0 mi SE 12.7 mph - N/A   Clear
6:55 PM 28.4 °F 17.0 °F 24.8 °F 86% 30.23 in 10.0 mi SE 15.0 mph - N/A   Clear
7:15 PM 28.4 °F 16.6 °F 24.8 °F 86% 30.22 in 10.0 mi SE 16.1 mph - N/A   Clear
7:35 PM 28.4 °F 17.5 °F 24.8 °F 86% 30.22 in 10.0 mi SE 13.8 mph - N/A   Clear
7:55 PM 28.4 °F 17.0 °F 24.8 °F 86% 30.21 in 10.0 mi SSE 15.0 mph - N/A   Clear
8:35 PM 28.4 °F 17.5 °F 24.8 °F 86% 30.20 in 10.0 mi SSE 13.8 mph - N/A   Clear
8:55 PM 28.4 °F 17.0 °F 24.8 °F 86% 30.20 in 10.0 mi SSE 15.0 mph - N/A   Clear
9:15 PM 28.4 °F 17.0 °F 24.8 °F 86% 30.19 in 10.0 mi SSE 15.0 mph - N/A   Clear
9:35 PM 28.4 °F 17.5 °F 24.8 °F 86% 30.18 in 10.0 mi SSE 13.8 mph - N/A   Clear
9:55 PM 28.4 °F 16.6 °F 24.8 °F 86% 30.19 in 10.0 mi SSE 16.1 mph - N/A   Clear
10:15 PM 28.4 °F 17.0 °F 24.8 °F 86% 30.19 in 10.0 mi SSE 15.0 mph - N/A   Clear
10:35 PM 30.2 °F 19.3 °F 24.8 °F 80% 30.19 in 10.0 mi SSE 15.0 mph - N/A   Clear
10:55 PM 30.2 °F 19.3 °F 24.8 °F 80% 30.18 in 10.0 mi SSE 15.0 mph - N/A   Clear
11:15 PM 30.2 °F 19.8 °F 26.6 °F 86% 30.17 in 10.0 mi SSE 13.8 mph - N/A   Clear
11:35 PM 30.2 °F 18.9 °F 24.8 °F 80% 30.17 in 10.0 mi SSE 16.1 mph - N/A   Clear
11:55 PM 30.2 °F 19.8 °F 26.6 °F 86% 30.17 in 10.0 mi SSE 13.8 mph - N/A   Clear